Weather reports worldwide

Advertisment
Culdrose, United Kingdom (3809): temperature & dewpoint: 10.10.2019 04:00:00 - 16.10.2019 04:00:00 (BST)Culdrose, United Kingdom (3809): wind speed & gusts: 10.10.2019 04:00:00 - 16.10.2019 04:00:00 (BST)Culdrose, United Kingdom (3809): wind direction: 10.10.2019 04:00:00 - 16.10.2019 04:00:00 (BST)Culdrose, United Kingdom (3809): reduced air pressure: 10.10.2019 04:00:00 - 16.10.2019 04:00:00 (BST)Culdrose, United Kingdom (3809): visibility: 10.10.2019 04:00:00 - 16.10.2019 04:00:00 (BST)Culdrose, United Kingdom (3809): precipitation: 10.10.2019 04:00:00 - 16.10.2019 04:00:00 (BST)
Date & Time tt [°C] td [°C] ff [km/h] ff [kn] fx [km/h] fx [kn] dd ppp [hPa] vv [km] rr [mm]
16.10.2019 04:00:00 12,3 9,3 24 13 - - W 1001,0 18 0,0
16.10.2019 03:00:00 12,0 10,9 18 10 - - W 1000,4 10 0,0
16.10.2019 02:00:00 12,5 12,0 22 12 - - W 999,9 28 0,0
16.10.2019 01:00:00 13,6 13,5 29 16 50 27 W 999,3 18 0,4
16.10.2019 00:00:00 14,5 14,5 37 20 55 30 SSW 998,6 0,4 1,0
15.10.2019 23:00:00 13,6 13,6 35 19 57 31 S 999,0 7 1,6
15.10.2019 22:00:00 13,1 12,9 35 19 54 29 SSE 1000,0 4,0 3,0
15.10.2019 21:00:00 12,8 12,5 26 14 59 32 S 1001,1 3,0 0,8
15.10.2019 20:00:00 13,1 12,4 26 14 48 26 S 1002,4 8 0,8
15.10.2019 19:00:00 13,2 12,5 18 10 - - S 1003,2 5 0,6
15.10.2019 18:00:00 13,3 12,1 18 10 - - S 1003,8 10 0,0
15.10.2019 17:00:00 13,6 12,0 18 10 - - S 1004,1 10 0,0
15.10.2019 16:00:00 13,6 11,0 18 10 - - SSW 1004,7 10 0,0
15.10.2019 15:00:00 13,9 9,7 24 13 - - SSW 1005,0 10 0,0
15.10.2019 14:00:00 14,4 8,9 24 13 - - SW 1005,2 10 0,0
15.10.2019 13:00:00 14,0 8,7 18 10 - - WSW 1005,1 20 0,0
15.10.2019 12:00:00 13,7 8,7 18 10 - - W 1005,0 10 0,0
15.10.2019 11:00:00 13,1 8,6 18 10 - - W 1005,1 10 0,0
15.10.2019 10:00:00 12,6 10,8 18 10 - - WNW 1004,8 10 0,0
15.10.2019 09:00:00 11,2 11,0 11 6 - - WNW 1004,2 10 0,0
15.10.2019 08:00:00 9,5 9,5 11 6 - - W 1003,4 10 0,0
15.10.2019 07:00:00 9,7 9,7 8 4 - - WNW 1002,8 15 0,0
15.10.2019 06:00:00 7,4 7,3 5 3 - - N 1002,6 10 0,2
15.10.2019 05:00:00 8,7 8,7 4 2 - - NE 1002,3 9 0,0
15.10.2019 04:00:00 8,7 8,6 4 2 - - ESE 1002,1 1,4 0,0
15.10.2019 03:00:00 10,8 10,2 13 7 - - S 1002,0 20 0,0
15.10.2019 02:00:00 11,1 10,4 13 7 - - S 1001,8 28 0,0
15.10.2019 01:00:00 10,6 9,7 9 5 - - SSW 1001,5 10 0,0
15.10.2019 00:00:00 11,9 10,8 9 5 - - SSW 1001,6 25 0,0
14.10.2019 23:00:00 12,9 11,5 15 8 - - SSW 1001,6 10 0,0
14.10.2019 22:00:00 12,8 11,9 13 7 - - SSW 1001,6 23 0,0
14.10.2019 21:00:00 12,7 12,4 11 6 - - S 1001,4 10 0,0
14.10.2019 20:00:00 13,1 12,7 11 6 - - SSE 1001,3 19 0,0
14.10.2019 19:00:00 13,1 12,4 11 6 - - SSE 1001,1 10 0,0
14.10.2019 18:00:00 13,4 12,2 9 5 - - SSE 1000,7 10 0,0
14.10.2019 17:00:00 13,9 12,2 11 6 - - SSE 1001,0 10 0,0
14.10.2019 16:00:00 13,7 12,5 13 7 - - SSE 1000,9 10 0,0
14.10.2019 15:00:00 13,5 12,5 16 9 - - SE 1001,2 10 0,4
14.10.2019 14:00:00 13,5 12,8 15 8 - - SE 1001,8 5 0,8
14.10.2019 13:00:00 13,6 12,3 24 13 - - SE 1002,3 10 0,0
14.10.2019 12:00:00 13,7 12,1 22 12 - - SE 1002,6 10 0,0
14.10.2019 11:00:00 13,6 12,3 21 11 - - SE 1003,3 10 0,0
14.10.2019 10:00:00 13,3 11,9 22 12 - - SE 1003,5 10 0,0
14.10.2019 09:00:00 12,9 11,9 18 10 - - SE 1004,0 10 0,0
14.10.2019 08:00:00 12,6 11,6 21 11 - - SE 1004,0 10 0,0
14.10.2019 07:00:00 12,6 11,4 16 9 - - SSE 1004,4 10 0,0
14.10.2019 06:00:00 12,3 11,0 21 11 - - SSE 1005,0 27 0,0
14.10.2019 05:00:00 12,8 11,9 26 14 - - SSE 1005,6 24 0,0
14.10.2019 04:00:00 12,9 12,1 24 13 - - SSE 1006,0 23 0,0
14.10.2019 03:00:00 12,7 11,9 22 12 - - SSE 1006,7 22 0,0
14.10.2019 02:00:00 12,7 12,1 24 13 - - SSE 1007,2 20 0,0
14.10.2019 01:00:00 12,7 12,2 22 12 - - SE 1007,3 20 0,0
14.10.2019 00:00:00 12,2 11,8 18 10 - - SSE 1007,8 19 0,0
13.10.2019 23:00:00 12,1 11,5 16 9 - - SSE 1007,9 10 0,0
13.10.2019 22:00:00 12,1 11,2 15 8 - - SSE 1008,4 10 0,0
13.10.2019 21:00:00 12,4 11,3 15 8 - - S 1008,6 21 0,0
13.10.2019 20:00:00 13,4 11,5 18 10 - - SSW 1007,9 25 0,0
13.10.2019 19:00:00 13,4 11,4 18 10 - - SSW 1007,4 10 0,0
13.10.2019 18:00:00 14,0 10,9 21 11 - - SW 1006,9 27 0,0
13.10.2019 17:00:00 14,7 11,5 26 14 - - SW 1006,6 30 0,0
13.10.2019 16:00:00 15,1 11,1 28 15 - - SW 1006,1 30 0,0
13.10.2019 15:00:00 14,8 11,6 28 15 - - SW 1005,7 30 0,0
13.10.2019 14:00:00 14,4 10,2 21 11 - - WSW 1004,9 10 0,0
13.10.2019 13:00:00 14,3 10,0 22 12 - - W 1004,1 35 0,0
13.10.2019 12:00:00 13,4 9,6 28 15 - - W 1003,5 35 0,0
13.10.2019 11:00:00 12,7 10,7 22 12 - - W 1002,2 30 0,0
13.10.2019 10:00:00 12,9 11,7 28 15 50 27 W 1000,8 26 0,4
13.10.2019 09:00:00 12,8 12,7 24 13 - - S 999,9 1,4 1,0
13.10.2019 08:00:00 12,2 12,1 15 8 - - S 999,6 13 0,0
13.10.2019 07:00:00 12,0 11,8 13 7 - - SSE 999,6 20 0,2
13.10.2019 06:00:00 12,0 11,9 13 7 - - ESE 999,9 21 0,6
13.10.2019 05:00:00 12,0 11,5 16 9 - - SE 1000,6 13 0,6
13.10.2019 04:00:00 12,2 12,1 16 9 - - ESE 1001,2 10 1,0
13.10.2019 03:00:00 12,0 11,8 18 10 - - ESE 1002,1 10 0,4
13.10.2019 02:00:00 11,9 11,7 16 9 - - ESE 1003,2 13 0,8
13.10.2019 01:00:00 11,6 11,3 13 7 - - ESE 1004,2 16 0,6
13.10.2019 00:00:00 11,3 11,0 11 6 - - ESE 1004,9 10 0,0
12.10.2019 23:00:00 11,6 11,2 18 10 - - SE 1005,6 30 0,0
12.10.2019 22:00:00 11,8 11,6 13 7 - - SSE 1006,1 17 0,4
12.10.2019 21:00:00 11,8 11,0 13 7 - - SSE 1006,2 30 0,0
12.10.2019 20:00:00 11,9 11,5 13 7 - - SSE 1006,5 10 0,0
12.10.2019 19:00:00 11,9 11,2 11 6 - - S 1006,7 25 0,2
12.10.2019 18:00:00 12,2 11,0 16 9 - - S 1006,7 29 0,0
12.10.2019 17:00:00 12,6 11,8 21 11 - - S 1006,9 28 0,0
12.10.2019 16:00:00 12,8 12,3 21 11 - - S 1007,1 19 0,4
12.10.2019 15:00:00 13,0 12,3 21 11 - - S 1007,4 10 0,0
12.10.2019 14:00:00 12,9 12,1 21 11 - - S 1007,9 10 0,0
12.10.2019 13:00:00 12,8 12,0 15 8 - - S 1008,2 26 0,0
12.10.2019 12:00:00 12,8 11,5 16 9 - - S 1008,3 10 0,0
12.10.2019 11:00:00 12,9 11,8 15 8 - - S 1008,4 30 0,0
12.10.2019 10:00:00 12,3 11,5 13 7 - - SSW 1008,3 30 0,0
12.10.2019 09:00:00 11,8 10,9 15 8 - - SSW 1007,6 35 0,0
12.10.2019 08:00:00 11,6 10,4 15 8 - - SSW 1007,3 10 0,0
12.10.2019 07:00:00 11,2 10,9 15 8 - - SW 1007,3 10 0,0
12.10.2019 06:00:00 11,0 10,7 8 4 - - SW 1007,4 10 0,4
12.10.2019 05:00:00 11,0 10,6 9 5 - - WSW 1007,3 16 0,6
12.10.2019 04:00:00 11,1 11,0 9 5 - - W 1007,1 13 4,2
12.10.2019 03:00:00 11,6 11,5 18 10 - - SW 1007,5 1,9 1,8
12.10.2019 02:00:00 11,6 11,4 26 14 - - SW 1007,6 11 1,8
12.10.2019 01:00:00 11,7 11,2 28 15 - - SW 1007,7 21 0,8
12.10.2019 00:00:00 11,7 11,1 24 13 - - SSW 1007,8 12 0,8
11.10.2019 23:00:00 11,5 11,2 18 10 - - SSW 1007,5 15 1,4
11.10.2019 22:00:00 11,3 10,7 15 8 - - SW 1007,4 7 1,6
11.10.2019 21:00:00 11,6 11,0 15 8 - - SW 1007,1 7 2,0
11.10.2019 20:00:00 12,5 12,1 11 6 - - WSW 1007,3 4,8 1,0
11.10.2019 19:00:00 12,5 11,9 11 6 - - WSW 1006,8 7 0,6
11.10.2019 18:00:00 12,8 12,4 11 6 - - WSW 1006,7 8 1,0
11.10.2019 17:00:00 12,5 10,6 21 11 - - W 1006,4 9 1,0
11.10.2019 16:00:00 14,0 13,8 24 13 55 30 W 1006,5 10 0,2
11.10.2019 15:00:00 14,7 14,7 48 26 63 34 SW 1005,6 2,7 0,0
11.10.2019 14:00:00 14,8 14,6 46 25 67 36 SW 1006,1 2,6 0,2
11.10.2019 13:00:00 15,2 14,5 46 25 67 36 SW 1006,3 10 0,0
11.10.2019 12:00:00 15,3 14,4 48 26 67 36 SSW 1006,2 10 0,0
11.10.2019 11:00:00 15,1 14,4 39 21 65 35 SSW 1006,4 6 0,0
11.10.2019 10:00:00 14,6 14,4 34 18 59 32 SW 1006,8 2,5 0,6
11.10.2019 09:00:00 14,5 14,1 34 18 54 29 SSW 1006,7 6 0,4
11.10.2019 08:00:00 13,5 12,9 34 18 54 29 SW 1007,0 6 0,8
11.10.2019 07:00:00 14,3 13,8 31 17 55 30 SW 1007,3 8 0,2
11.10.2019 06:00:00 14,4 14,1 42 23 54 29 SSW 1007,7 12 0,4
11.10.2019 05:00:00 14,0 13,5 39 21 54 29 SW 1008,4 12 0,6
11.10.2019 04:00:00 14,1 13,8 44 24 67 36 SW 1008,9 7 0,6
11.10.2019 03:00:00 14,7 14,4 50 27 61 33 SSW 1009,1 6 0,4
11.10.2019 02:00:00 14,7 14,4 41 22 55 30 SSW 1009,8 5 1,2
11.10.2019 01:00:00 14,8 14,4 41 22 63 34 SW 1010,4 8 0,0
11.10.2019 00:00:00 15,0 14,3 39 21 54 29 SSW 1010,9 9 0,0
10.10.2019 23:00:00 14,9 14,2 35 19 52 28 SW 1011,3 9 0,0
10.10.2019 22:00:00 14,9 14,3 34 18 54 29 SW 1011,7 3,0 0,0
10.10.2019 21:00:00 14,8 14,4 31 17 52 28 SW 1012,0 3,0 0,0
10.10.2019 20:00:00 14,8 14,3 31 17 52 28 SW 1012,5 3,0 0,0
10.10.2019 19:00:00 14,8 14,3 34 18 52 28 SW 1012,6 4,0 0,0
10.10.2019 18:00:00 14,8 14,1 28 15 52 28 SW 1012,6 5 0,0
10.10.2019 17:00:00 14,8 14,1 37 20 50 27 SW 1013,0 14 0,0
10.10.2019 16:00:00 15,3 14,3 39 21 50 27 SW 1013,2 16 0,0
10.10.2019 15:00:00 15,1 14,1 29 16 54 29 SW 1013,8 10 0,0
10.10.2019 14:00:00 14,5 13,6 41 22 54 29 SW 1014,2 15 0,0
10.10.2019 13:00:00 14,6 13,0 26 14 48 26 SW 1014,6 10 0,0
10.10.2019 12:00:00 14,7 12,2 28 15 48 26 SW 1015,0 10 0,0
10.10.2019 11:00:00 14,8 11,7 24 13 - - SW 1015,0 10 0,0
10.10.2019 10:00:00 14,1 11,5 24 13 - - SW 1015,0 20 0,0
10.10.2019 09:00:00 13,3 10,1 16 9 - - WSW 1015,0 18 0,0
10.10.2019 08:00:00 13,0 10,2 16 9 - - WSW 1014,4 10 0,0
10.10.2019 07:00:00 12,5 9,4 18 10 - - W 1014,1 10 0,0
10.10.2019 06:00:00 12,2 9,4 24 13 - - W 1013,8 18 0,0
10.10.2019 05:00:00 12,2 9,4 16 9 - - W 1013,9 19 0,0
10.10.2019 04:00:00 12,4 9,3 29 16 - - W 1014,0 19 0,0

tt = temperature
td = dewpoint
ff = wind speed
fx = gusts
dd = wind direction
ppp = reduced air pressure
vv = visibility
rr = precipitation

Next stations